{"data":{"norad_id":48796,"epoch":"2026-09-19T22:13:12.402336Z","epoch_age_seconds":71499,"freshness":"FRESH","line1":"1 48796U 21045AF  26262.92583799  .00000145  00000+0  35104-3 0  9991","line2":"2 48796  87.8991 240.3104 0002222  65.2713 294.8649 13.15548860256820","mean_motion":13.1554886,"eccentricity":0.0002222,"inclination_deg":87.8991,"raan_deg":240.3104,"arg_perigee_deg":65.2713,"mean_anomaly_deg":294.8649,"bstar":0.00035104,"rev_number":25682,"period_min":109.46001655917,"perigee_km":1200.0853214515,"apogee_km":1203.4538319342,"semimajor_km":7579.9065766929,"source":"CELESTRAK","updated_at":"2026-09-20T09:00:44.621323Z"}}